Regional Weather Roundup
Issued by NWS

Home | Current Version | Previous Version | Text Only | Print | Product List | Glossary On
Versions: 1 2 3 4 5 6 7 8 9 10 11 12 13 14 15 16 17 18 19 20 21 22 23 24 25 26 27 28 29 30 31 32 33 34 35 36 37 38 39 40 41 42 43 44 45 46 47 48 49 50
000
ASUS43 KMKX 210710
RWRWI

WISCONSIN REGIONAL WEATHER ROUNDUP
NATIONAL WEATHER SERVICE MILWAUKEE/SULLIVAN WI
200 AM CDT MON MAY 21 2018

NOTE: "FAIR" INDICATES FEW OR NO CLOUDS BELOW 12,000 FEET WITH NO
SIGNIFICANT WEATHER AND/OR OBSTRUCTIONS TO VISIBILITY.

WIZ001-002-006>008-014>016-023>028-210800-
NORTHWEST WISCONSIN

CITY           SKY/WX    TMP DP  RH WIND       PRES   REMARKS
SUPERIOR ARPT  FAIR      35  35  99 CALM      30.18R
ASHLAND        FAIR      35  33  92 SW5       30.18F WCI  31
HAYWARD        FAIR      39  35  86 CALM      30.18S
SIREN          FAIR      39  35  83 CALM      30.16F
CUMBERLAND     FAIR      43  36  75 CALM      30.17S
RICE LAKE      FAIR      44  40  85 CALM      30.19S
CHETEK         FAIR      44  40  88 E3        30.18F
LADYSMITH      FAIR      44  36  74 CALM      30.21S
EAU CLAIRE     FAIR      47  43  86 NE3       30.17S
MENOMONIE      MOCLDY    53  44  70 CALM      30.17S
NEW RICHMOND   FAIR      49  38  65 E3        30.16S
OSCEOLA        FAIR      46  37  70 CALM      30.18F
$$

WIZ003>005-009-010-017-018-210800-
NORTH CENTRAL WISCONSIN

CITY           SKY/WX    TMP DP  RH WIND       PRES   REMARKS
MANITOWISH WTR FAIR      38  38 100 CALM      30.21S
ARBOR VITAE    FAIR      42  36  77 CALM      30.21S
WOODRUFF       FAIR      42  36  77 CALM      30.21S
RHINELANDER    FAIR      42  35  76 CALM      30.21F
EAGLE RIVER    FAIR      38  35  90 CALM      30.21S
LAND O LAKES   FAIR      37  34  92 CALM      30.23S
PHILLIPS       FAIR      37  36  96 CALM      30.20S
TOMAHAWK       FAIR      35  32  88 CALM      30.21S
MEDFORD        FAIR      41  35  77 E3        30.20S
MERRILL        FAIR      37  35  92 NE3       30.21F
$$

WIZ029-030-035-036-043>047-210800-
CENTRAL WISCONSIN

CITY           SKY/WX    TMP DP  RH WIND       PRES   REMARKS
WAUSAU         FAIR      46  36  68 E3        30.19F
MOSINEE        FAIR      43  32  65 E5        30.20F
MARSHFIELD     FAIR      47  34  60 E5        30.18F
STEVENS POINT  NOT AVBL
WAUPACA        FAIR      43  38  84 N3        30.20S
WAUTOMA        FAIR      42  40  92 CALM      30.19F
WISC RAPIDS    FAIR      44  36  73 CALM      30.20S
CAMP DOUGLAS   FAIR      47  46  94 CALM      30.17S
$$

WIZ011>013-019>022-031-037>040-048>050-210800-
NORTHEAST WISCONSIN

CITY           SKY/WX    TMP DP  RH WIND       PRES   REMARKS
ANTIGO         FAIR      38  32  79 CALM      30.22S
SHAWANO        FAIR      42  38  87 CALM      30.21F
OCONTO         FAIR      36  34  94 CALM      30.21F
STURGEON BAY   FAIR      40  31  70 E5        30.22F
GREEN BAY      FAIR      40  35  83 NE3       30.21F
MANITOWOC      FAIR      39  35  86 NW3       30.21F
APPLETON       FAIR      46  23  39 E3        30.19R
CLINTONVILLE   FAIR      41  36  80 NE3       30.21S
OSHKOSH        FAIR      48  31  51 CALM      30.19S
$$

WIZ032>034-041-042-053>061-210800-
SOUTHWEST WISCONSIN

CITY           SKY/WX    TMP DP  RH WIND       PRES   REMARKS
LA CROSSE      CLOUDY    58  50  75 E6        30.15F
SPARTA         CLOUDY    49  48  96 CALM      30.18S
VIROQUA        CLOUDY    52  50  93 E5        30.16F
BOSCOBEL       CLOUDY    56  51  84 CALM      30.16S
PRAIRIE DU CHI CLOUDY    56  49  77 E6        30.14S
PLATTEVILLE    FAIR      52  47  85 E9        30.15F
$$

WIZ056-057-062-063-064-067-068-210800-
SOUTH CENTRAL WISCONSIN

CITY           SKY/WX    TMP DP  RH WIND       PRES   REMARKS
REEDSBURG      FAIR      51  44  78 CALM      30.17S
BARABOO/DELLS  FAIR      48  42  79 CALM      30.17S
LONE ROCK      CLOUDY    54  50  86 E5        30.16F
MINERAL POINT  FAIR      52  46  82 E7        30.15F
MADISON        CLOUDY    50  45  83 E3        30.16F
MIDDLETON      CLOUDY    54  40  59 E6        30.17F
WATERTOWN      CLOUDY    47  45  91 CALM      30.18S
MONROE         MOCLDY    48  43  81 NE7       30.15S
JANESVILLE     FAIR      50  43  76 NE6       30.16F
$$

WIZ051-052-058>065-066-070>072-210800-
SOUTHEAST WISCONSIN

CITY           SKY/WX    TMP DP  RH WIND       PRES   REMARKS
MILWAUKEE      MOCLDY    45  40  82 N3        30.18F
WAUKESHA       FAIR      41  36  81 CALM      30.19F
MILWAUKEE/TIMM FAIR      41  36  81 CALM      30.20S
RACINE         MOCLDY    44  41  89 N5        30.19F
BURLINGTON     FAIR      45  40  82 N3        30.17F
KENOSHA        FAIR      45  40  82 N5        30.16F
FOND DU LAC    FAIR      45  37  73 NE3       30.19F
SHEBOYGAN      FAIR      39  37  92 CALM      30.19F
WEST BEND      FAIR      41  39  93 CALM      30.20R
JUNEAU         FAIR      46  34  62 CALM      30.19S
$$

LSZ147-162-210800-
LAKE SUPERIOR

STATION/POSITION TIME  TEMP    WIND        PRES    WAVE
                       AIR SEA DIR/SP/G            HT/PER
                 (UTC) (F)     (DEG/KT/KT) (MB)    (FT/S)
W MID LAKE BUOY  0650   42 36  200/  4/  4 1022.4F   0
DEVILS ISLAND    0700   54     120/  4/  5 1022.2S
SAXON HARBOR     0630   41     190/  2/  2 1021.3S
$$

LMZ867-665-643>646-210800-
LAKE MICHIGAN

STATION/POSITION TIME  TEMP    WIND        PRES    WAVE
                       AIR SEA DIR/SP/G            HT/PER
                 (UTC) (F)     (DEG/KT/KT) (MB)    (FT/S)
NORTHPORT PIER   0640   41                 1023.4S
KEWAUNEE LAKESHO 0642           30/  1/  3 1022.7R
SHEBOYGAN LAKESH 0700   47      10/  9/ 10 1022.8F
PORT WASHINGTON  0640   47     340/  2/  4 1023.4S
MILWAUKEE LAKESH 0650   47     350/  4/  5   N/A
KENOSHA   LAKESH 0700   47                 1021.3
$$

TC  - TEMPERATURE IN CELSIUS
VSB - VISIBILITY IN STATUTE MILES
WCI - WIND CHILL INDEX
HX  - HEAT INDEX





USA.gov is the U.S. government's official web portal to all federal, state and local government web resources and services.